• In Czech Republic
  • List of Countries
  • For 7 days
  • Water Temperature
  • Satellite Maps
  • Weather Map
  • Weather Widgets
  • user-avatar
    Login

    Hourly Weather Parakou

    Today, 25 September, Tuesday

    Time Temperature Precipitation Wind Pressure Humidity
    00:00 +25°C° 0 mm 1 mps 728 mmHg 93%
    01:00 +24°C° 0 mm 1 mps 728 mmHg 94%
    02:00 +24°C° 0 mm 1 mps 727 mmHg 94%
    03:00 +24°C° 0 mm 1 mps 727 mmHg 94%
    04:00 +24°C° 0 mm 1 mps 727 mmHg 94%
    05:00 +24°C° 0 mm 1 mps 727 mmHg 94%
    06:00 +24°C° 0 mm 1 mps 728 mmHg 94%
    07:00 +25°C° 0 mm 1 mps 728 mmHg 88%
    08:00 +27°C° 0 mm 1 mps 728 mmHg 82%
    09:00 +28°C° 0 mm 1 mps 729 mmHg 77%
    10:00 +30°C° 0 mm 1 mps 728 mmHg 70%
    11:00 +32°C° 0 mm 1 mps 728 mmHg 64%
    12:00 +32°C° 0 mm 0 mps 727 mmHg 58%
    13:00 +33°C° 0.7 mm 1 mps 727 mmHg 61%
    14:00 +32°C° 0.7 mm 1 mps 726 mmHg 64%
    15:00 +32°C° 0.7 mm 1 mps 725 mmHg 68%
    16:00 +30°C° 0.6 mm 1 mps 725 mmHg 73%
    17:00 +29°C° 0.6 mm 1 mps 726 mmHg 79%
    18:00 +27°C° 0.6 mm 1 mps 726 mmHg 85%
    19:00 +27°C° 0.4 mm 1 mps 726 mmHg 87%
    20:00 +26°C° 0.4 mm 1 mps 727 mmHg 88%
    21:00 +26°C° 0.4 mm 2 mps 727 mmHg 89%
    22:00 +25°C° 0.2 mm 1 mps 727 mmHg 90%
    23:00 +25°C° 0.2 mm 1 mps 727 mmHg 91%

    Tomorrow, 26 September, Wednesday

    Time Temperature Precipitation Wind Pressure Humidity
    00:00 +25°C° 0.2 mm 1 mps 727 mmHg 92%
    01:00 +25°C° 0 mm 1 mps 727 mmHg 93%
    02:00 +24°C° 0 mm 1 mps 726 mmHg 94%
    03:00 +24°C° 0 mm 2 mps 726 mmHg 95%
    04:00 +24°C° 0 mm 2 mps 726 mmHg 95%
    05:00 +24°C° 0 mm 2 mps 726 mmHg 96%
    06:00 +24°C° 0 mm 2 mps 727 mmHg 97%
    07:00 +25°C° 0 mm 2 mps 727 mmHg 92%
    08:00 +26°C° 0 mm 2 mps 728 mmHg 86%
    09:00 +28°C° 0 mm 2 mps 728 mmHg 81%
    10:00 +29°C° 0 mm 2 mps 728 mmHg 74%
    11:00 +31°C° 0 mm 2 mps 728 mmHg 68%
    12:00 +32°C° 0 mm 2 mps 727 mmHg 61%
    13:00 +33°C° 0 mm 3 mps 727 mmHg 62%
    14:00 +33°C° 0 mm 3 mps 726 mmHg 63%
    15:00 +33°C° 0 mm 3 mps 725 mmHg 64%
    16:00 +31°C° 0.1 mm 2 mps 726 mmHg 71%
    17:00 +29°C° 0.1 mm 2 mps 726 mmHg 77%
    18:00 +28°C° 0.1 mm 2 mps 726 mmHg 84%
    19:00 +27°C° 0.1 mm 2 mps 727 mmHg 86%
    20:00 +27°C° 0.1 mm 2 mps 727 mmHg 88%
    21:00 +26°C° 0.1 mm 2 mps 728 mmHg 91%
    22:00 +26°C° 0 mm 2 mps 728 mmHg 92%
    23:00 +25°C° 0 mm 2 mps 728 mmHg 92%

    Day after tomorrow, 27 September, Thursday

    Time Temperature Precipitation Wind Pressure Humidity
    00:00 +25°C° 0 mm 2 mps 728 mmHg 93%
    01:00 +25°C° 0 mm 2 mps 727 mmHg 94%
    02:00 +24°C° 0 mm 2 mps 727 mmHg 94%
    03:00 +24°C° 0 mm 2 mps 726 mmHg 94%
    04:00 +24°C° 0 mm 2 mps 726 mmHg 95%
    05:00 +24°C° 0 mm 2 mps 726 mmHg 95%
    06:00 +23°C° 0 mm 2 mps 727 mmHg 96%
    07:00 +25°C° 0 mm 2 mps 727 mmHg 90%
    08:00 +26°C° 0 mm 3 mps 728 mmHg 84%
    09:00 +28°C° 0 mm 3 mps 728 mmHg 79%
    10:00 +29°C° 0 mm 3 mps 728 mmHg 74%
    11:00 +31°C° 0 mm 3 mps 727 mmHg 69%
    12:00 +33°C° 0 mm 3 mps 727 mmHg 64%
    13:00 +32°C° 0 mm 2 mps 726 mmHg 64%
    14:00 +32°C° 0 mm 2 mps 726 mmHg 63%
    15:00 +32°C° 0 mm 2 mps 725 mmHg 63%
    16:00 +31°C° 0.1 mm 1 mps 725 mmHg 68%
    17:00 +30°C° 0.1 mm 1 mps 725 mmHg 72%
    18:00 +28°C° 0.1 mm 1 mps 726 mmHg 77%
    19:00 +28°C° 0.3 mm 1 mps 726 mmHg 81%
    20:00 +27°C° 0.3 mm 1 mps 727 mmHg 84%
    21:00 +26°C° 0.3 mm 2 mps 727 mmHg 88%
    22:00 +26°C° 0.2 mm 2 mps 727 mmHg 90%
    23:00 +25°C° 0.2 mm 2 mps 727 mmHg 92%

    28 September, Friday

    Time Temperature Precipitation Wind Pressure Humidity
    00:00 +25°C° 0.2 mm 2 mps 727 mmHg 94%
    01:00 +25°C° 0 mm 2 mps 726 mmHg 95%
    02:00 +25°C° 0 mm 2 mps 726 mmHg 96%
    03:00 +24°C° 0 mm 2 mps 726 mmHg 96%
    04:00 +24°C° 0 mm 2 mps 726 mmHg 97%
    05:00 +24°C° 0 mm 2 mps 727 mmHg 97%
    06:00 +24°C° 0 mm 2 mps 727 mmHg 97%
    07:00 +25°C° 0 mm 2 mps 727 mmHg 94%
    08:00 +26°C° 0 mm 2 mps 728 mmHg 91%
    09:00 +27°C° 0 mm 2 mps 728 mmHg 88%
    10:00 +28°C° 0 mm 2 mps 728 mmHg 82%
    11:00 +29°C° 0 mm 2 mps 727 mmHg 77%
    12:00 +31°C° 0 mm 2 mps 727 mmHg 71%
    13:00 +31°C° 0.3 mm 2 mps 726 mmHg 69%
    14:00 +32°C° 0.3 mm 2 mps 725 mmHg 67%
    15:00 +32°C° 0.3 mm 2 mps 725 mmHg 65%
    16:00 +30°C° 3.1 mm 1 mps 725 mmHg 73%
    17:00 +29°C° 3.1 mm 1 mps 726 mmHg 81%
    18:00 +27°C° 3.1 mm 1 mps 726 mmHg 88%
    19:00 +27°C° 0.2 mm 1 mps 727 mmHg 89%
    20:00 +26°C° 0.2 mm 1 mps 727 mmHg 89%
    21:00 +26°C° 0.2 mm 1 mps 728 mmHg 90%
    22:00 +26°C° 0 mm 1 mps 727 mmHg 91%
    23:00 +25°C° 0 mm 1 mps 727 mmHg 92%

    29 September, Saturday

    Time Temperature Precipitation Wind Pressure Humidity
    00:00 +25°C° 0 mm 1 mps 726 mmHg 93%
    01:00 +25°C° 0 mm 1 mps 726 mmHg 93%
    02:00 +25°C° 0 mm 1 mps 726 mmHg 94%
    03:00 +24°C° 0 mm 1 mps 726 mmHg 94%
    04:00 +24°C° 0 mm 1 mps 726 mmHg 95%
    05:00 +24°C° 0 mm 1 mps 727 mmHg 95%
    06:00 +24°C° 0 mm 1 mps 727 mmHg 96%
    07:00 +25°C° 0.1 mm 1 mps 728 mmHg 91%
    08:00 +27°C° 0.1 mm 2 mps 728 mmHg 86%
    09:00 +28°C° 0.1 mm 2 mps 728 mmHg 82%
    10:00 +29°C° 1.5 mm 2 mps 728 mmHg 78%
    11:00 +30°C° 1.5 mm 1 mps 727 mmHg 75%
    12:00 +31°C° 1.5 mm 1 mps 726 mmHg 72%
    13:00 +30°C° 1.8 mm 1 mps 726 mmHg 75%
    14:00 +30°C° 1.8 mm 2 mps 726 mmHg 79%
    15:00 +29°C° 1.8 mm 2 mps 725 mmHg 82%
    16:00 +28°C° 0.1 mm 1 mps 726 mmHg 84%
    17:00 +27°C° 0.1 mm 1 mps 726 mmHg 87%
    18:00 +24°C° 0.1 mm 0 mps 726 mmHg 90%
    19:00 +24°C° 0 mm 0 mps 726 mmHg 90%
    20:00 +24°C° 0 mm 0 mps 726 mmHg 90%
    21:00 +24°C° 0 mm 0 mps 726 mmHg 90%
    22:00 +23°C° 0 mm 0 mps 726 mmHg 90%
    23:00 +23°C° 0 mm 0 mps 726 mmHg 91%

    30 September, Sunday

    Time Temperature Precipitation Wind Pressure Humidity
    00:00 +23°C° 0 mm 0 mps 726 mmHg 91%
    01:00 +25°C° 0 mm 1 mps 726 mmHg 91%
    02:00 +25°C° 0 mm 1 mps 726 mmHg 92%
    03:00 +24°C° 0 mm 1 mps 726 mmHg 92%
    04:00 +24°C° 0 mm 1 mps 726 mmHg 93%
    05:00 +24°C° 0 mm 1 mps 727 mmHg 93%
    06:00 +24°C° 0 mm 1 mps 727 mmHg 93%
    07:00 +26°C° 0 mm 1 mps 728 mmHg 88%
    08:00 +27°C° 0 mm 1 mps 728 mmHg 84%
    09:00 +28°C° 0 mm 2 mps 728 mmHg 79%
    10:00 +30°C° 0 mm 2 mps 727 mmHg 73%
    11:00 +31°C° 0 mm 2 mps 727 mmHg 67%
    12:00 +34°C° 0 mm 2 mps 727 mmHg 61%
    13:00 +33°C° 0.1 mm 1 mps 726 mmHg 61%
    14:00 +33°C° 0.1 mm 1 mps 725 mmHg 62%
    15:00 +33°C° 0.1 mm 1 mps 725 mmHg 63%
    16:00 +31°C° 0.6 mm 1 mps 725 mmHg 69%
    17:00 +30°C° 0.6 mm 1 mps 725 mmHg 75%
    18:00 +28°C° 0.6 mm 1 mps 726 mmHg 82%
    19:00 +28°C° 2.9 mm 1 mps 726 mmHg 85%
    20:00 +27°C° 2.9 mm 1 mps 727 mmHg 88%
    21:00 +26°C° 2.9 mm 1 mps 727 mmHg 90%
    22:00 +26°C° 0 mm 1 mps 727 mmHg 91%
    23:00 +26°C° 0 mm 1 mps 726 mmHg 92%
    Show more